Regional Weather Roundup
Issued by NWS Kansas City/Pleasant Hill, MO

Home | Current Version | Previous Version | Graphics & Text | Print | Product List | Glossary Off
Versions: 1 2 3 4 5 6 7 8 9 10 11 12 13 14 15 16 17 18 19 20 21 22 23 24 25 26 27

000
ASUS43 KEAX 190710
RWREAX

WEATHER ROUNDUP FOR EASTERN KANSAS AND NORTHWEST MISSOURI
NATIONAL WEATHER SERVICE KANSAS CITY/PLEASANT HILL MO
200 AM CDT TUE SEP 19 2017

KSZ040-057-103>105-MOZ028-029-037-043-190800-
...KANSAS CITY METROPOLITAN AREA...

CITY           SKY/WX    TMP DP  RH WIND       PRES   REMARKS
K.C. INTL      CLOUDY    67  67 100 SE10      29.92S FOG
K.C. DOWNTOWN  CLOUDY    69  69 100 SE3       29.91F FOG
LEES SUMMIT    FOG       67  67 100 SE3       29.93F VSB 1/4
OLATHE - IXD   CLEAR     66  65  96 SE6       29.92F
OLATHE - OJC   MOCLDY    65  65 100 SE5       29.92F FOG
LAWRENCE       PTCLDY    67  67 100 E5        29.90F

$$

MOZ001>008-011>017-020>025-030>033-038>040-044>046-053-054-190800-
...NORTHERN AND CENTRAL MISSOURI...

CITY           SKY/WX    TMP DP  RH WIND       PRES   REMARKS
ST. JOSEPH     CLOUDY    67  67 100 SE7       29.91S
MOSBY          FOG       66  66 100 SE3       29.92F VSB 1/2
WARRENSBURG    FOG       66  64  94 CALM      29.93S VSB 1/4
WHITEMAN AFB   FOG       66  66 100 S2        29.92F VSB 1/4
CLINTON        FOG       63  63 100 CALM      29.93F VSB<1/4
SEDALIA        FOG       63  63 100 SE5       29.94F VSB 1/4
WARSAW         NOT AVBL
CHILLICOTHE      N/A     63  63 100 CALM      29.94S
KIRKSVILLE     FOG       63  63 100 SW3       29.95F VSB 1/4

$$

MOZ041-047>049-056>058-063>065-088>090-097-190800-
...EASTERN AND SOUTHERN MISSOURI...

CITY           SKY/WX    TMP DP  RH WIND       PRES   REMARKS
ST. LOUIS INTL CLOUDY    70  69  97 CALM      29.94F
SPIRIT OF STL  CLEAR     67  67 100 CALM      29.93F
COLUMBIA       FOG       66  66 100 CALM      29.94F VSB 1/2
JEFFERSON CITY FOG       67  65  93 CALM      29.93S VSB 1/4
ROLLA          CLEAR     66  66 100 S7        29.96S
OSAGE BEACH    CLEAR     65  65 100 CALM      29.94S FOG
SPRINGFIELD    CLEAR     68  67  96 S5        29.94F
BRANSON        CLEAR     66  66 100 CALM      29.96F FOG
JOPLIN         CLEAR     69  68  96 SE5       29.93S
WEST PLAINS    CLEAR     65  64  97 CALM      29.96F FOG

$$

IAZ060-094-KSZ022-034>040-054-083-096-NEZ052-066-093-190800-
...KANSAS...SOUTHEAST NEBRASKA AND IOWA...

CITY           SKY/WX    TMP DP  RH WIND       PRES   REMARKS
TOPEKA         MOCLDY    69  67  93 E3        29.89S
MANHATTAN      CLEAR     71  65  81 S3        29.86F
EMPORIA        CLEAR     68  65  90 S9        29.89F
CHANUTE        CLOUDY    72  66  81 SE6       29.91F
WICHITA        MOCLDY    70  68  93 SE7       29.89S
OMAHA          MOCLDY    67  64  90 SE12      29.88F
LINCOLN        CLEAR     67  65  93 SE9       29.86F
FALLS CITY     PTCLDY    66  65  96 SE6       29.88F FOG
LAMONI         PTCLDY    63  63 100 S6        29.93F FOG
DES MOINES     FOG       64  64 100 SE7       29.92F VSB 1/8

$$





USA.gov is the U.S. government's official web portal to all federal, state and local government web resources and services.